FW8325 Weather Reports


time (UTC)temp
C
wind
direction
speed
KPH
gust
KPH
rain 1hr
cm
rain 24hr
cm
rain mn
cm
humidity
%
barometer
mb
20260505034646 11 247 0.0 0.0 0.00 0.00 0.00 50 1007.1
20260505033627 11 247 0.0 0.0 0.00 0.00 0.00 54 1006.9
20260505032625 11 248 0.0 0.0 0.00 0.00 0.00 51 1006.9
20260505031624 11 257 0.0 0.0 0.00 0.00 0.00 48 1006.8
20260505030625 11 259 0.0 0.0 0.00 0.00 0.00 49 1006.7
20260505025623 12 139 0.0 0.0 0.00 0.00 0.00 58 1006.6
20260505024626 13 138 0.0 0.0 0.00 0.00 0.00 59 1006.5
20260505023620 13 115 0.0 0.0 0.00 0.00 0.00 53 1006.4
20260505022640 13 163 0.0 1.6 0.00 0.00 0.00 60 1006.4
20260505021619 13 152 0.0 3.2 0.00 0.00 0.00 56 1006.3
20260505020621 15 150 0.0 3.2 0.00 0.00 0.00 46 1006.1
20260505015621 17 24 0.0 0.0 0.00 0.00 0.00 42 1005.9
20260505014655 17 24 0.0 0.0 0.00 0.00 0.00 39 1005.9
20260505013633 17 24 0.0 0.0 0.00 0.00 0.00 45 1005.8
20260505012633 16 9 0.0 0.0 0.00 0.00 0.00 39 1005.8
20260505011617 16 342 0.0 0.0 0.00 0.00 0.00 34 1005.9
20260505010616 16 348 0.0 11.3 0.00 0.00 0.00 34 1006.1
20260505005617 16 303 1.6 16.1 0.00 0.00 0.00 32 1006.0
20260505004635 16 318 6.4 17.7 0.00 0.00 0.00 33 1006.1
20260505003633 16 272 6.4 41.8 0.00 0.00 0.00 36 1006.1
20260505002633 16 271 14.5 35.4 0.00 0.00 0.00 34 1006.1
20260505001632 17 311 0.0 1.6 0.00 0.00 0.00 42 1005.9
20260505000625 17 25 0.0 4.8 0.00 0.00 0.00 40 1005.9
20260504235620 17 111 0.0 0.0 0.00 0.00 0.00 36 1005.8
20260504234620 15 112 0.0 0.0 0.00 0.00 0.00 41 1005.8
20260504233621 15 111 0.0 0.0 0.00 0.00 0.00 53 1005.6
20260504232641 15 110 0.0 0.0 0.00 0.00 0.00 55 1005.7
20260504231618 16 112 0.0 0.0 0.00 0.00 0.00 27 1005.5
20260504230656 16 121 0.0 0.0 0.00 0.00 0.00 29 1005.5
20260504225631 16 138 0.0 0.0 0.00 0.00 0.00 36 1005.7
20260504224631 16 131 0.0 0.0 0.00 0.00 0.00 38 1005.9
20260504223632 16 115 0.0 0.0 0.00 0.00 0.00 51 1005.8
20260504222630 16 69 0.0 0.0 0.00 0.00 0.00 44 1006.0
20260504221629 17 69 0.0 0.0 0.00 0.00 0.00 36 1006.1
20260504220631 16 70 0.0 0.0 0.00 0.00 0.00 43 1006.3
20260504215631 15 69 0.0 0.0 0.00 0.00 0.00 43 1006.5
20260504214635 15 69 0.0 0.0 0.00 0.00 0.00 49 1006.7
20260504213634 14 69 0.0 0.0 0.00 0.00 0.00 60 1006.8
20260504212653 14 52 0.0 0.0 0.00 0.00 0.00 58 1007.0
20260504211631 14 62 0.0 3.2 0.00 0.00 0.00 51 1006.9
20260504210629 14 64 0.0 3.2 0.00 0.00 0.00 51 1007.1
20260504205633 15 94 0.0 1.6 0.00 0.00 0.00 43 1007.2
20260504204634 15 109 0.0 1.6 0.00 0.00 0.00 36 1007.3
20260504203654 15 111 0.0 1.6 0.00 0.00 0.00 41 1007.4
20260504202632 15 115 3.2 9.7 0.00 0.00 0.00 42 1007.5
20260504201631 15 125 0.0 1.6 0.00 0.00 0.00 37 1007.6
20260504200633 15 178 0.0 8.0 0.00 0.00 0.00 43 1007.8
20260504195634 16 178 0.0 6.4 0.00 0.00 0.00 35 1007.8
20260504194634 14 147 0.0 0.0 0.00 0.00 0.00 43 1008.0
20260504193633 14 327 0.0 0.0 0.00 0.00 0.00 44 1008.0
20260504192615 14 328 0.0 0.0 0.00 0.00 0.00 47 1008.1
20260504191615 16 94 0.0 1.6 0.00 0.00 0.00 33 1008.1
20260504190616 16 105 0.0 14.5 0.00 0.00 0.00 30 1008.2
20260504185618 16 97 8.0 24.1 0.00 0.00 0.00 27 1008.3
20260504184617 16 113 1.6 22.5 0.00 0.00 0.00 29 1008.7
20260504183621 15 294 6.4 48.3 0.00 0.00 0.00 33 1009.2
20260504182621 12 262 0.0 4.8 0.00 0.00 0.00 51 1009.0
20260504181620 11 63 0.0 0.0 0.00 0.00 0.00 62 1009.0
20260504180633 11 67 0.0 0.0 0.00 0.00 0.00 62 1009.1
20260504175633 11 63 0.0 0.0 0.00 0.00 0.00 63 1009.2
20260504174616 11 67 0.0 0.0 0.00 0.00 0.00 62 1009.2
20260504173635 10 65 0.0 0.0 0.00 0.00 0.00 63 1009.2
20260504172615 10 62 0.0 0.0 0.00 0.00 0.00 63 1009.4
20260504171655 10 57 0.0 0.0 0.00 0.00 0.00 66 1009.4
20260504170631 10 55 0.0 0.0 0.00 0.00 0.00 64 1009.4
20260504150632 10 42 0.0 0.0 0.00 0.00 0.00 66 1010.0
20260504140630 8 203 0.0 0.0 0.00 0.00 0.00 64 1010.4
20260504130627 4 205 0.0 0.0 0.00 0.00 0.00 70 1010.3
20260504110634 3 262 0.0 0.0 0.00 0.00 0.00 66 1010.1
20260504081629 7 207 0.0 0.0 0.00 0.00 0.00 46 1010.5
20260504080630 7 207 0.0 0.0 0.00 0.00 0.00 52 1010.5
20260504050629 9 145 0.0 0.0 0.00 0.00 0.00 47 1011.2
20260504045628 10 145 0.0 0.0 0.00 0.00 0.00 53 1011.3
20260504044628 10 145 0.0 0.0 0.00 0.00 0.00 51 1011.3
20260504043631 10 119 0.0 0.0 0.00 0.00 0.00 54 1011.3
20260504042631 10 238 0.0 0.0 0.00 0.00 0.00 38 1011.3
20260504041628 11 274 0.0 0.0 0.00 0.00 0.00 35 1011.3
20260504040647 10 284 0.0 0.0 0.00 0.00 0.00 35 1011.4
20260504035628 11 279 0.0 0.0 0.00 0.00 0.00 36 1011.3